カタログに戻る

STARLINK-11077

運用中通信VLEO
NORAD 58707·PAYLOAD·🇺🇸 United States

打ち上げ Jan 3, 2024 から Vandenberg Space Force Base

Loading…

次のパス (今後24時間)

TLE

最新Source: CelesTrak SupGP

元期: Sep 14, 2026, 13:35 UTC

1 58707C 24002C   26257.56645833  .00003153  00000+0  25971-4 0  2573
2 58707  53.1573  63.0200 0001003  77.3508 191.9776 15.69707790    10

AllMySatでSTARLINK-11077をリアルタイム追跡

Download on the App Store